AirNav   Phillips 66 Aviation Fuel
 
 316 users online  

80C Lone Hickory Airport
Yadkinville, North Carolina, USA

GOING TO YADKINVILLE?


FAA INFORMATION EFFECTIVE 26 APRIL 2018

Location

FAA Identifier: 80C
Lat/Long: 36-03-37.8520N / 080-41-24.3600W
36-03.630867N / 080-41.406000W
36.0605144 / -80.6901000
(estimated)
Elevation: 1015 ft. / 309 m (estimated)
Variation: 06W (1995)
From city: 6 miles S of YADKINVILLE, NC
Time zone: UTC -4 (UTC -5 during Standard Time)
Zip code: 27055

Airport Operations

Airport use: Open to the public
Activation date: 12/1997
Control tower: no
ARTCC: ATLANTA CENTER
FSS: RALEIGH FLIGHT SERVICE STATION
NOTAMs facility: RDU (NOTAM-D service available)
Attendance: IREG
Wind indicator: yes
Segmented circle: no

Airport Communications

CTAF: 122.9

Nearby radio navigation aids

VOR radial/distance  VOR name  Freq  Var
BZMr073/29.1BARRETTS MOUNTAIN VOR/DME110.8006W
GSOr274/34.6GREENSBORO VORTAC116.2003W

 
NDB name  Hdg/Dist  Freq  Var  ID
ZEPHYR181/15.132608WZEF --.. . ..-.
LINCOLNTON038/36.843206WIZN .. --.. -.
ASHEE133/37.941007WJUH .--- ..- ....

Airport Services

Runway Information

Runway 16/34

Dimensions: 2000 x 60 ft. / 610 x 18 m
Surface: turf, in good condition
Gradient: S.
RUNWAY 16  RUNWAY 34
Latitude: 36-03.773400N36-03.488333N
Longitude: 080-41.508000W080-41.304000W
Elevation: 943.0 ft.1015.0 ft.
Gradient: 3.6% UP
Traffic pattern: leftleft
Runway heading: 156 magnetic, 150 true336 magnetic, 330 true
Obstructions: 10 ft. road, 14 ft. from runway, 54 ft. left and right of centerline97 ft. trees, 737 ft. from runway, 79 ft. right of centerline, 7:1 slope to clear

Airport Ownership and Management from official FAA records

Ownership: Privately-owned
Owner: HAROLD HOLCOMB & JEFF STEELE
1205 RUNWAY TRAIL
YADKINVILLE, NC 27055
Phone (336) 468-0641
STEELE'S ADDRESS: 1208 RUNWAY TRAIL YADKINVILLE, NC 27055
Manager: HAROLD DEAN HOLCOMB
1205 RUNWAY TRAIL
YADKINVILLE, NC 27055
Phone (336) 468-0641

Airport Operational Statistics

Aircraft based on the field: 6
Single engine airplanes: 6
    
Aircraft operations: avg 46/month *
91% local general aviation
9% transient general aviation
* for 12-month period ending 27 August 2016

Additional Remarks

ACFT OPERATING FM PINEY RIDGE ARPT 1.3 MI NW.
PLINES 500-1000 FT N RY 16 THLD.
RY 16/34 HAS 3% GRADE; WINDS PERMITTING TKOF RY 16 LND RY 34.
NO FLIGHT TRAINING OR STUDENT PILOTS; ONLY EXPERIENCED PILOTS PERMITTED.
RY 16 DEPARTURES MAKE LEFT TURN FOR NOISE & OBSTRUCTION AVOIDANCE.

Instrument Procedures

There are no published instrument procedures at 80C.

Some nearby airports with instrument procedures:

KZEF - Elkin Municipal Airport (14 nm N)
8A7 - Twin Lakes Airport (14 nm SE)
KSVH - Statesville Regional Airport (22 nm SW)
KUKF - Wilkes County Airport (22 nm NW)
KINT - Smith Reynolds Airport (23 nm E)
 
Loc | Ops | Rwys | IFR | FBO | Links
Com | Nav | Svcs | Stats | Notes

AirNav Hotels Sweepstakes
 
Area around 80C (Lone Hickory Airport)
 
Road maps at: MapQuest Bing Google
 
Aerial photo
No photo
 
Sectional chart

 
Airport distance calculator
Flying to Lone Hickory Airport? Find the distance to fly.

From to 80C

Sunrise and sunset
Times for 27-Apr-2018
 Local
(UTC-4)
 Zulu
(UTC)
Morning civil twilight06:0810:08
Sunrise06:3610:36
Sunset20:0500:05
Evening civil twilight20:3200:32

Current date and time
Zulu (UTC)  27-Apr-2018 07:11:15
Local (UTC-4)  27-Apr-2018 03:11:15
 
METAR
KUKF 
22nm NW 
270655Z AUTO 00000KT 3/4SM BR OVC002 12/12 A2983 RMK AO2
KSVH 
23nm SW 
270655Z AUTO 00000KT 1/4SM FG OVC002 11/09 A2977 RMK AO2 T01090093
KINT 
23nm E 
270654Z AUTO 20003KT 4SM BR OVC002 13/13 A2978 RMK AO2 SLP079 T01280128
KEXX 
25nm SE 
270655Z AUTO 00000KT 1/4SM FG OVC001 12/12 A2978 RMK AO2 P0003 T01200120
KMWK 
25nm N 
270655Z AUTO 22003KT 1SM BR OVC002 13/11 A2979 RMK AO2 T01330113
KRUQ 
26nm S 
270655Z AUTO 00000KT 1/2SM FG BKN002 OVC080 11/11 A2978 RMK AO2 T01050105
KGSO 
36nm E 
270701Z 23003KT 1/4SM R05R/1800V2400FT FG VV002 12/12 A2976 RMK AO2 T01220122
KHKY 
38nm SW 
270653Z AUTO 00000KT 1/4SM FG VV002 12/12 A2978 RMK AO2 SLP069 T01220122
KJQF 
41nm S 
270655Z AUTO 00000KT 1/4SM FG OVC001 12/12 A2981 RMK AO2
KGEV 
42nm NW 
270700Z AUTO 00000KT 1 3/4SM BR OVC002 08/08 A2979 RMK AO2 VIS 1 1/4V2 1/2 T00820081
TAF
KINT 
23nm E 
270540Z 2706/2806 00000KT 1/4SM FG OVC002 TEMPO 2706/2708 VRB02KT 3SM BR BKN004 FM271230 24004KT P6SM BKN006 FM271445 25004KT P6SM BKN015 FM271615 27005KT P6SM SCT030 SCT060 PROB30 2717/2720 6SM -SHRA BKN035 OVC090
NOTAMs
Click for the latest NOTAMs
NOTAMs are issued by the DoD/FAA and will open in a separate window not controlled by AirNav.

 

 
 

Would you like to see your business listed on this page?

 If your business provides an interesting product or service to pilots, flight crews, aircraft, or users of the Lone Hickory Airport, you should consider listing it here.  To start the listing process, click on the button below
 
Add a business
 

Other Pages about Lone Hickory Airport

Update a link
 
Copyright © AirNav, LLC. All rights reserved. Privacy Policy  Contact